La Ceiba, Honduras

2:24 PM CST on April 23, 2017 (GMT -0600)
Goloson International

Weather History for MHLC - December, 2012

Change the Weather History Date:

Monday, December 3, 2012

  Actual Average Record
Temperature  
Mean Temperature 74 °F -  
Max Temperature 81 °F 79 °F 86 °F (1996)
Min Temperature 66 °F 66 °F 64 °F (2011)
Cooling Degree Days 8    
Growing Degree Days 24 (Base 50)    
Moisture  
Dew Point 69 °F    
Average Humidity 85    
Maximum Humidity 95    
Minimum Humidity 68    
Precipitation  
Precipitation 0.08 in 0.61 in - ()
Sea Level Pressure  
Sea Level Pressure 30.01 in    
Wind  
Wind Speed 2 mph ()    
Max Wind Speed 14 mph    
Max Gust Speed -    
Visibility 5.5 miles    
Events Rain    
Averages and records for this station are not official NWS values.
T = Trace of Precipitation, MM = Missing Value Source: Averaged Metar Reports

Daily Weather History Graph

Daily Weather History Graph

Search for Another Location

Airport or City:

Trip Planner

Search our weather history database for the weather conditions in past years. The results will help you decide how hot, cold, wet, or windy it might be!

Date:

Astronomy

Dec. 03, 2012 Rise Set
Actual Time 6:00 AM CST 5:14 PM CST
Civil Twilight 5:36 AM CST 5:38 PM CST
Nautical Twilight 5:10 AM CST 6:04 PM CST
Astronomical Twilight 4:43 AM CST 6:31 PM CST
Moon 9:36 PM CST (12/3) 9:43 AM CST (12/3)
Length of Visible Light 12h 01m
Length of Day
11h 14m
Waning Gibbous, 78% of the Moon is Illuminated
Dec 3
Waning Gibbous
Dec 6
Last Quarter
Dec 13
New
Dec 19
First Quarter
Dec 28
Full

Hourly Weather History & Observations

Time (CST) Temp. Dew Point Humidity Pressure Visibility Wind Dir Wind Speed Gust Speed Precip Events Conditions
12:00 AM 68.0 °F 66.2 °F 94% 30.04 in 6.2 mi Calm Calm - N/A   Mostly Cloudy
6:00 AM 68 °F 67 °F 95% 30.02 in 8 mi Calm Calm - -   Partly Cloudy
6:00 AM 68.0 °F 66.2 °F 94% 30.01 in 6.2 mi Calm Calm - N/A   Mostly Cloudy
7:00 AM 69.8 °F 68.0 °F 94% 30.04 in 6.2 mi Variable 2.3 mph - N/A   Heavy Drizzle
8:00 AM 71.6 °F 68.0 °F 88% 30.04 in 3.1 mi SSE 3.5 mph - N/A   Light Drizzle
9:00 AM 72 °F 69 °F 85% 30.07 in 3 mi Calm Calm - - Rain Light Drizzle
9:00 AM 71.6 °F 68.0 °F 88% 30.06 in 3.1 mi Calm Calm - N/A   Light Drizzle
10:00 AM 71.6 °F 69.8 °F 94% 30.06 in 3.1 mi West 3.5 mph - N/A   Light Drizzle
11:00 AM 71.6 °F 69.8 °F 94% 30.04 in 1.2 mi SSE 3.5 mph - N/A   Heavy Drizzle
12:00 PM 76 °F 71 °F 80% 30.04 in 6 mi SW 6.9 mph - -   Overcast
12:00 PM 77.0 °F 71.6 °F 83% 30.04 in 6.2 mi SW 6.9 mph - N/A   Overcast
1:00 PM 78.8 °F 71.6 °F 78% 30.01 in 6.2 mi Calm Calm - N/A   Overcast
2:00 PM 77.0 °F 69.8 °F 78% 29.98 in 6.2 mi NW 4.6 mph - N/A   Mostly Cloudy
3:00 PM 78 °F 69 °F 68% 29.98 in 6 mi North 4.6 mph - -   Haze
3:00 PM 78.8 °F 69.8 °F 74% 29.98 in 6.2 mi North 4.6 mph - N/A   Mostly Cloudy
4:00 PM 78.8 °F 69.8 °F 74% 29.95 in 6.2 mi WNW 2.3 mph - N/A   Mostly Cloudy
5:00 PM 77.0 °F 69.8 °F 78% 29.98 in 6.2 mi North 13.8 mph - N/A   Mostly Cloudy
6:00 PM 75 °F 70 °F 81% 29.99 in 6 mi Calm Calm - -   Haze
6:00 PM 75.2 °F 69.8 °F 83% 29.98 in 6.2 mi Calm Calm - N/A   Mostly Cloudy
7:00 PM 73.4 °F 68.0 °F 83% 29.98 in - Calm Calm - N/A   Scattered Clouds
8:00 PM 71.6 °F 68.0 °F 88% 30.01 in 6.2 mi Calm Calm - N/A   Mostly Cloudy
10:00 PM 71.6 °F 68.0 °F 88% 30.01 in 6.2 mi Calm Calm - N/A   Mostly Cloudy
11:00 PM - - N/A% 30.01 in 6.2 mi Calm Calm - N/A   Mostly Cloudy